Location: Miami, Florida
(25.6830°N, 80.1700°W)
Time: 07:19:57
(UTC-04:00)

N. Korean satellite - Pass Details

Date: 12 November 2017
Orbit: 460 x 514 km, 97.2° (Epoch: 23 November)

Event Time Altitude Azimuth Distance (km) Brightness Sun altitude
Rises 18:56:01 0° 143° (SE) 2,470 10.0 -5.8°
Reaches altitude 10° 18:58:19 10° 129° (SE) 1,599 8.9 -6.2°
Maximum altitude 19:01:05 23° 75° (ENE) 1,022 7.6 -6.8°
Drops below altitude 10° 19:03:52 10° 21° (NNE) 1,612 8.9 -7.4°
Sets 19:06:12 0° 6° (N) 2,496 9.9 -7.9°
